• In Netherlands
  • List of Countries
  • For 7 days
  • Water Temperature
  • Satellite Maps
  • Weather Map
  • Weather Widgets
  • user-avatar
    Login

    Hourly Weather Qala i Naw

    Today, 25 September, Monday

    Time Temperature Precipitation Wind Pressure Humidity
    00:00 +19°C° 0 mm 2 mps 683 mmHg 19%
    01:00 +19°C° 0 mm 2 mps 683 mmHg 19%
    02:00 +18°C° 0 mm 2 mps 683 mmHg 20%
    03:00 +18°C° 0 mm 2 mps 683 mmHg 20%
    04:00 +17°C° 0 mm 2 mps 683 mmHg 20%
    05:00 +18°C° 0 mm 2 mps 683 mmHg 19%
    06:00 +19°C° 0 mm 2 mps 683 mmHg 18%
    07:00 +20°C° 0 mm 2 mps 684 mmHg 17%
    08:00 +23°C° 0 mm 2 mps 684 mmHg 15%
    09:00 +25°C° 0 mm 2 mps 684 mmHg 14%
    10:00 +27°C° 0 mm 2 mps 684 mmHg 12%
    11:00 +27°C° 0 mm 3 mps 684 mmHg 11%
    12:00 +28°C° 0 mm 3 mps 684 mmHg 11%
    13:00 +29°C° 0 mm 4 mps 683 mmHg 11%
    14:00 +29°C° 0 mm 4 mps 683 mmHg 11%
    15:00 +29°C° 0 mm 5 mps 683 mmHg 12%
    16:00 +29°C° 0 mm 5 mps 683 mmHg 12%
    17:00 +28°C° 0 mm 4 mps 683 mmHg 14%
    18:00 +26°C° 0 mm 3 mps 683 mmHg 16%
    19:00 +24°C° 0 mm 2 mps 683 mmHg 17%
    20:00 +24°C° 0 mm 2 mps 683 mmHg 18%
    21:00 +23°C° 0 mm 2 mps 683 mmHg 19%
    22:00 +21°C° 0 mm 2 mps 683 mmHg 19%
    23:00 +21°C° 0 mm 2 mps 683 mmHg 20%

    Tomorrow, 26 September, Tuesday

    Time Temperature Precipitation Wind Pressure Humidity
    00:00 +20°C° 0 mm 2 mps 682 mmHg 20%
    01:00 +21°C° 0 mm 1 mps 682 mmHg 21%
    02:00 +20°C° 0 mm 1 mps 682 mmHg 21%
    03:00 +20°C° 0 mm 1 mps 682 mmHg 22%
    04:00 +19°C° 0 mm 1 mps 682 mmHg 23%
    05:00 +20°C° 0 mm 1 mps 682 mmHg 22%
    06:00 +21°C° 0 mm 1 mps 682 mmHg 21%
    07:00 +22°C° 0 mm 1 mps 683 mmHg 20%
    08:00 +24°C° 0 mm 1 mps 683 mmHg 18%
    09:00 +25°C° 0 mm 1 mps 683 mmHg 16%
    10:00 +27°C° 0 mm 2 mps 683 mmHg 14%
    11:00 +28°C° 0 mm 2 mps 683 mmHg 14%
    12:00 +29°C° 0 mm 3 mps 683 mmHg 13%
    13:00 +30°C° 0 mm 3 mps 682 mmHg 13%
    14:00 +30°C° 0 mm 4 mps 682 mmHg 13%
    15:00 +30°C° 0 mm 4 mps 682 mmHg 13%
    16:00 +30°C° 0 mm 4 mps 682 mmHg 13%
    17:00 +28°C° 0 mm 3 mps 682 mmHg 15%
    18:00 +27°C° 0 mm 3 mps 682 mmHg 16%
    19:00 +25°C° 0 mm 2 mps 682 mmHg 18%
    20:00 +24°C° 0 mm 2 mps 682 mmHg 19%
    21:00 +24°C° 0 mm 2 mps 682 mmHg 20%
    22:00 +23°C° 0 mm 2 mps 682 mmHg 20%
    23:00 +21°C° 0 mm 2 mps 682 mmHg 21%

    Day after tomorrow, 27 September, Wednesday

    Time Temperature Precipitation Wind Pressure Humidity
    00:00 +22°C° 0 mm 1 mps 682 mmHg 22%
    01:00 +21°C° 0 mm 1 mps 682 mmHg 23%
    02:00 +20°C° 0 mm 1 mps 682 mmHg 24%
    03:00 +20°C° 0 mm 1 mps 682 mmHg 25%
    04:00 +19°C° 0 mm 1 mps 682 mmHg 25%
    05:00 +20°C° 0 mm 1 mps 683 mmHg 25%
    06:00 +21°C° 0 mm 1 mps 683 mmHg 24%
    07:00 +22°C° 0 mm 1 mps 684 mmHg 23%
    08:00 +23°C° 0 mm 1 mps 684 mmHg 21%
    09:00 +25°C° 0 mm 2 mps 684 mmHg 19%
    10:00 +26°C° 0 mm 2 mps 684 mmHg 17%
    11:00 +27°C° 0 mm 2 mps 684 mmHg 16%
    12:00 +29°C° 0 mm 3 mps 684 mmHg 15%
    13:00 +30°C° 0 mm 3 mps 684 mmHg 14%
    14:00 +30°C° 0 mm 3 mps 683 mmHg 14%
    15:00 +30°C° 0 mm 4 mps 683 mmHg 14%
    16:00 +30°C° 0 mm 4 mps 683 mmHg 15%
    17:00 +28°C° 0 mm 3 mps 683 mmHg 17%
    18:00 +26°C° 0 mm 2 mps 683 mmHg 20%
    19:00 +25°C° 0 mm 2 mps 683 mmHg 22%
    20:00 +24°C° 0 mm 2 mps 683 mmHg 23%
    21:00 +24°C° 0 mm 1 mps 682 mmHg 24%
    22:00 +23°C° 0 mm 1 mps 682 mmHg 25%
    23:00 +22°C° 0 mm 1 mps 682 mmHg 25%

    28 September, Thursday

    Time Temperature Precipitation Wind Pressure Humidity
    00:00 +22°C° 0 mm 1 mps 682 mmHg 25%
    01:00 +21°C° 0 mm 1 mps 681 mmHg 26%
    02:00 +21°C° 0 mm 1 mps 681 mmHg 26%
    03:00 +20°C° 0 mm 1 mps 681 mmHg 26%
    04:00 +20°C° 0 mm 1 mps 680 mmHg 26%
    05:00 +21°C° 0 mm 1 mps 681 mmHg 25%
    06:00 +22°C° 0 mm 1 mps 681 mmHg 23%
    07:00 +23°C° 0 mm 1 mps 682 mmHg 21%
    08:00 +25°C° 0 mm 1 mps 682 mmHg 19%
    09:00 +27°C° 0 mm 1 mps 682 mmHg 16%
    10:00 +29°C° 0 mm 1 mps 683 mmHg 14%
    11:00 +30°C° 0 mm 2 mps 682 mmHg 13%
    12:00 +31°C° 0 mm 2 mps 682 mmHg 12%
    13:00 +31°C° 0 mm 3 mps 682 mmHg 12%
    14:00 +31°C° 0 mm 3 mps 682 mmHg 12%
    15:00 +31°C° 0 mm 3 mps 682 mmHg 12%
    16:00 +32°C° 0 mm 4 mps 682 mmHg 12%
    17:00 +29°C° 0 mm 3 mps 682 mmHg 14%
    18:00 +28°C° 0 mm 3 mps 682 mmHg 16%
    19:00 +26°C° 0 mm 3 mps 683 mmHg 18%
    20:00 +25°C° 0 mm 3 mps 683 mmHg 20%
    21:00 +23°C° 0 mm 4 mps 683 mmHg 23%
    22:00 +22°C° 0 mm 5 mps 684 mmHg 25%
    23:00 +21°C° 0 mm 4 mps 684 mmHg 28%

    29 September, Friday

    Time Temperature Precipitation Wind Pressure Humidity
    00:00 +20°C° 0 mm 4 mps 684 mmHg 31%
    01:00 +18°C° 0 mm 4 mps 684 mmHg 34%
    02:00 +18°C° 0 mm 3 mps 684 mmHg 36%
    03:00 +17°C° 0 mm 3 mps 684 mmHg 38%
    04:00 +16°C° 0 mm 3 mps 684 mmHg 40%
    05:00 +16°C° 0 mm 2 mps 684 mmHg 40%
    06:00 +16°C° 0 mm 2 mps 685 mmHg 40%
    07:00 +16°C° 0 mm 2 mps 685 mmHg 40%
    08:00 +18°C° 0 mm 3 mps 685 mmHg 37%
    09:00 +19°C° 0 mm 3 mps 685 mmHg 34%
    10:00 +20°C° 0 mm 3 mps 685 mmHg 31%
    11:00 +21°C° 0 mm 4 mps 685 mmHg 29%
    12:00 +23°C° 0 mm 4 mps 685 mmHg 28%
    13:00 +25°C° 0 mm 4 mps 684 mmHg 26%
    14:00 +25°C° 0 mm 4 mps 684 mmHg 26%
    15:00 +25°C° 0 mm 4 mps 684 mmHg 27%
    16:00 +25°C° 0 mm 5 mps 684 mmHg 27%
    17:00 +23°C° 0 mm 4 mps 684 mmHg 30%
    18:00 +21°C° 0 mm 4 mps 684 mmHg 33%
    19:00 +20°C° 0 mm 3 mps 685 mmHg 35%
    20:00 +20°C° 0 mm 3 mps 685 mmHg 36%
    21:00 +19°C° 0 mm 2 mps 685 mmHg 37%
    22:00 +18°C° 0 mm 2 mps 685 mmHg 39%
    23:00 +18°C° 0 mm 2 mps 684 mmHg 38%

    30 September, Saturday

    Time Temperature Precipitation Wind Pressure Humidity
    00:00 +17°C° 0 mm 2 mps 684 mmHg 38%
    01:00 +18°C° 0 mm 1 mps 684 mmHg 38%
    02:00 +16°C° 0 mm 1 mps 683 mmHg 38%
    03:00 +16°C° 0 mm 1 mps 683 mmHg 37%
    04:00 +15°C° 0 mm 1 mps 683 mmHg 37%
    05:00 +16°C° 0 mm 1 mps 684 mmHg 35%
    06:00 +18°C° 0 mm 1 mps 684 mmHg 32%
    07:00 +18°C° 0 mm 1 mps 684 mmHg 30%
    08:00 +19°C° 0 mm 2 mps 684 mmHg 27%
    09:00 +21°C° 0 mm 2 mps 685 mmHg 24%
    10:00 +23°C° 0 mm 2 mps 685 mmHg 21%
    11:00 +24°C° 0 mm 2 mps 684 mmHg 19%
    12:00 +26°C° 0 mm 3 mps 684 mmHg 17%
    13:00 +27°C° 0 mm 3 mps 684 mmHg 16%
    14:00 +27°C° 0 mm 3 mps 684 mmHg 15%
    15:00 +27°C° 0 mm 3 mps 684 mmHg 15%
    16:00 +27°C° 0 mm 3 mps 684 mmHg 15%
    17:00 +26°C° 0 mm 3 mps 684 mmHg 17%
    18:00 +24°C° 0 mm 2 mps 684 mmHg 18%
    19:00 +21°C° 0 mm 2 mps 684 mmHg 20%
    20:00 +22°C° 0 mm 1 mps 684 mmHg 21%
    21:00 +21°C° 0 mm 1 mps 683 mmHg 22%
    22:00 +20°C° 0 mm 1 mps 683 mmHg 23%
    23:00 +20°C° 0 mm 1 mps 683 mmHg 24%
    Show more